Flag for India Weather past 2 weeks in Dharamshala, Himachal Pradesh, India

Now
86 °F

Broken clouds.


Feels Like: 95 °F
Forecast: 62 / 72 °F
Wind: 7 mph from Southeast

Location: Amritsar Airport

Current Time: Jul 7, 2015 at 11:10:40 AM

Latest Report: Jul 7, 2015 at 10:30 AM


Visibility: 2 mi

Pressure: 29.56 "Hg (25.30 "Hg at 1382m altitude)

Humidity: 70%

Dew point: 75 °F

Location of DharamshalaLocation

Historic Weather in Dharamshala — Graph

°F

Dharamshala temperature yesterday

Maximum temperature yesterday: 95 °F (at 1:30 PM)
Minimum temperature yesterday: 77 °F (at 5:00 AM)
Average temperature yesterday: 86 °F

Past Weeks' High & Low Weather Summary

 TemperatureHumidityPressure
High106 °F (Jun 28, 4:00 PM)100% (Jun 24, 4:00 AM)29.71 "Hg (Jun 24, 4:00 AM)
Low73 °F (Jun 23, 12:00 PM)27% (Jun 27, 2:30 PM)29.36 "Hg (Jun 22, 5:30 PM)
Average88 °F65%29.51 "Hg
* Reported Jun 22 8:30 AM — Jul 7 9:00 AM, Dharamshala, Weather by CustomWeather, © 2015

Note: Actual official high and low records may vary slightly from our data, if they occured in-between our weather recording intervals... More about our weather records

Advertising

Dharamshala weather history for previous 24 hours

 ConditionsComfort  
Time TempWeatherWind HumidityBarometerVisibility
9:00 AM
Tue, Jul 7
81 °FFog.6 mph89%29.53 "Hg1 mi
8:30 AM81 °FFog.No wind89%29.53 "Hg1 mi
7:30 AM81 °FFog.2 mph84%29.50 "Hg1 mi
6:00 AM79 °FFog.No wind89%29.50 "Hg1 mi
5:30 AM79 °FFog.No wind89%29.47 "Hg2 mi
5:00 AM79 °FFog.No wind89%29.47 "Hg2 mi
4:30 AM81 °FFog.No wind84%29.47 "Hg2 mi
3:30 AM81 °FFog.No wind84%29.47 "Hg2 mi
3:00 AM81 °FFog.No wind84%29.50 "Hg2 mi
2:30 AM81 °FFog.No wind79%29.50 "Hg2 mi
2:00 AM81 °FFog.7 mph79%29.47 "Hg2 mi
1:30 AM82 °FFog.9 mph74%29.50 "Hg2 mi
1:00 AM84 °FFog.10 mph74%29.50 "Hg2 mi
12:30 AM84 °FThunderstorms. Partly cloudy.8 mph79%29.47 "Hg2 mi
12:00 AM86 °FThunderstorms. Partly cloudy.10 mph75%29.50 "Hg2 mi
9:30 PM
Mon, Jul 6
88 °FFog.7 mph75%29.47 "Hg1 mi
9:00 PM88 °FFog.6 mph75%29.45 "Hg1 mi
8:30 PM88 °FFog.8 mph75%29.45 "Hg1 mi
8:00 PM88 °FFog.7 mph79%29.45 "Hg1 mi
7:30 PM90 °FFog.8 mph75%29.45 "Hg1 mi
5:30 PM90 °FFog.7 mph75%29.42 "Hg2 mi
4:30 PM91 °FMore clouds than sun.8 mph67%29.42 "Hg2 mi
1:30 PM95 °FBroken clouds.8 mph53%29.47 "Hg3 mi
11:30 AM91 °FBroken clouds.2 mph59%29.47 "Hg3 mi
11:00 AM90 °FBroken clouds.7 mph63%29.47 "Hg3 mi
Weather by CustomWeather, © 2015

See weather overviewHow to use our weather pages